Location: Little Chucky
(36.1118°N, 82.9913°W)
Time: 02:04:54
(UTC+00:00)

ACS3 Solar Sail - Visible Passes

Search period start: 12 June 2026 00:00
Search period end: 22 June 2026 00:00
Orbit: 871 x 959 km, 97.2° (Epoch: 11 June)

Date Brightness Start Highest point End Pass type
(mag) Time Alt. Az. Time Alt. Az. Time Alt. Az.
12 Jun 3.1 04:56:46 10° NE 05:00:29 24° ENE 05:00:29 24° ENE visible
12 Jun 2.4 06:38:26 10° N 06:43:42 39° WNW 06:43:51 39° WNW visible
13 Jun 2.9 05:03:33 10° NE 05:07:37 28° ENE 05:07:37 28° ENE visible
13 Jun 2.6 06:45:35 10° N 06:50:40 34° WNW 06:50:58 34° WNW visible
14 Jun 2.7 05:10:21 10° NNE 05:14:43 33° ENE 05:14:43 33° ENE visible
14 Jun 2.8 06:52:46 10° NNW 06:57:37 29° WNW 06:58:05 29° WNW visible
15 Jun 2.5 05:17:10 10° NNE 05:21:49 39° ENE 05:21:49 39° ENE visible
15 Jun 3.0 06:59:58 10° NNW 07:04:32 25° WNW 07:05:11 25° W visible
16 Jun 2.3 05:24:02 10° NNE 05:28:54 46° ENE 05:28:54 46° ENE visible
16 Jun 3.2 07:07:13 10° NNW 07:11:26 22° WNW 07:12:16 21° W visible
17 Jun 2.0 05:30:54 10° NNE 05:35:58 54° ENE 05:35:58 54° ENE visible
17 Jun 3.4 07:14:29 10° NNW 07:18:19 19° WNW 07:19:20 18° W visible
18 Jun 1.8 05:37:47 10° NNE 05:43:01 64° ENE 05:43:01 64° ENE visible
18 Jun 3.5 07:21:50 10° NNW 07:25:10 16° WNW 07:26:22 15° W visible
19 Jun 1.7 05:44:41 10° NNE 05:50:03 74° NE 05:50:03 74° NE visible
19 Jun 3.7 07:29:20 10° NW 07:31:59 13° WNW 07:33:24 12° W visible
20 Jun 1.6 05:51:35 10° N 05:57:04 80° N 05:57:04 80° N visible
20 Jun 3.8 07:37:05 10° NW 07:38:47 11° WNW 07:40:25 10° WNW visible
21 Jun 3.8 04:19:11 10° ENE 04:20:42 12° E 04:20:42 12° E visible
21 Jun 1.7 05:58:30 10° N 06:04:04 75° NW 06:04:04 75° NW visible
